This is the latest recevied weather packets stored in our database for station/object KC5EZZ-2. If no packets are shown the sender has not sent any weather packets the latest 10 day(s).
| Time | Temp. | Humidity | Pressure | Rain* | Wind** | Luminosity | Snow |
|---|---|---|---|---|---|---|---|
| 1777827225 | 23.89° C | - | - | 0 mm | 3.58 m/s, 148° | - | - |
| 1777826925 | 23.33° C | - | - | 0 mm | 4.47 m/s, 159° | - | - |
| 1777826626 | 23.89° C | - | - | 0 mm | 4.47 m/s, 194° | - | - |
| 1777826323 | 23.33° C | - | - | 0 mm | 4.47 m/s, 142° | - | - |
| 1777825724 | 23.33° C | - | - | 0 mm | 5.81 m/s, 176° | - | - |
| 1777825422 | 23.89° C | - | - | 0 mm | 4.92 m/s, 132° | - | - |
| 1777825122 | 23.33° C | - | - | 0 mm | 5.36 m/s, 159° | - | - |
| 1777824823 | 23.33° C | - | - | 0 mm | 5.36 m/s, 141° | - | - |
| 1777824520 | 22.78° C | - | - | 0 mm | 4.47 m/s, 193° | - | - |
| 1777824221 | 23.33° C | - | - | 0 mm | 2.68 m/s, 195° | - | - |
| 1777823921 | 22.78° C | - | - | 0 mm | 5.36 m/s, 205° | - | - |
| 1777823619 | 23.33° C | - | - | 0 mm | 3.13 m/s, 166° | - | - |
| 1777823319 | 22.78° C | - | - | 0 mm | 4.02 m/s, 207° | - | - |
| 1777823020 | 22.78° C | - | - | 0 mm | 4.92 m/s, 167° | - | - |
| 1777822717 | 22.78° C | - | - | 0 mm | 3.58 m/s, 191° | - | - |
| 1777822418 | 22.22° C | - | - | 0 mm | 4.92 m/s, 193° | - | - |
| 1777822118 | 21.67° C | - | - | 0 mm | 3.13 m/s, 181° | - | - |
| 1777821815 | 21.67° C | - | - | 0 mm | 4.02 m/s, 153° | - | - |
| 1777821516 | 21.67° C | - | - | 0 mm | 4.47 m/s, 201° | - | - |
| 1777821216 | 21.67° C | - | - | 0 mm | 3.58 m/s, 176° | - | - |
| 1777820914 | 21.11° C | - | - | 0 mm | 3.58 m/s, 194° | - | - |
| 1777820614 | 20.56° C | - | - | 0 mm | 3.13 m/s, 197° | - | - |
| 1777820315 | 20.56° C | - | - | 0 mm | 3.13 m/s, 193° | - | - |
| 1777820012 | 20.56° C | - | - | 0 mm | 3.58 m/s, 162° | - | - |
| 1777819713 | 20.56° C | - | - | 0 mm | 3.13 m/s, 183° | - | - |
* Rain latest hour (hover to see other rain measurements)
** Current wind speed in m/s (hover to see current wind gust speed)